[[{"header":{"parameterUnit":"m.s-1","parameterCategory":1,"la1":30.2991,"la2":30.254,"lo1":-89.0895,"lo2":-89.0444,"dy":0.0017,"dx":0.0017,"nx":28,"ny":28,"refTime":"2023-11-11T03:00:00:Z","depth":0,"parameterNumber":2,"parameterNumberName":"U-component_of_WINDS"},"data":[0,0,0,0,0,0,0,0,0,0,0,0,0,0,0,0,0,0,0,0,0,0,0,0,0,0,0,0,0,0,0,0,0,0,0,0,0,0,0,0,0,0,0,0,0,0,0,0,0,0,0,0,0,0,0,0,0,0,-2.5191,-2.5191,0,-2.5217,-2.5217,-2.5218,-2.516,-2.5158,-2.5156,-2.5154,-2.5181,-2.5184,-2.5186,0,0,0,0,0,0,0,0,0,0,0,0,0,-2.5089,-2.5092,-2.5191,-2.5191,-2.5191,-2.5217,-2.5217,-2.5218,-2.516,-2.5158,-2.5155,-2.5153,-2.5181,-2.5183,-2.5186,0,0,0,0,0,0,0,0,0,0,0,0,0,-2.5126,-2.5092,-2.5191,-2.5166,-2.5164,-2.5217,-2.5217,-2.5218,-2.516,-2.5158,-2.5155,-2.5152,-2.518,-2.5183,-2.5187,-2.5266,0,0,-2.5198,-2.52,0,0,0,0,0,0,0,0,-2.5124,-2.513,-2.5169,-2.5167,-2.5165,-2.5182,-2.5192,-2.5234,-2.5161,-2.5162,-2.5154,-2.5151,-2.5184,-2.5187,-2.5198,-2.5267,-2.5268,-2.5198,-2.5201,-2.5202,-2.5203,0,0,0,0,0,0,0,-2.5122,-2.5129,-2.5201,-2.5169,-2.5167,-2.5153,-2.5155,-2.5199,-2.5188,-2.5161,-2.5157,-2.5161,-2.5182,-2.5195,-2.5198,-2.5269,-2.5198,-2.5202,-2.5204,-2.5205,-2.5404,-2.5407,0,0,0,0,0,0,-2.5123,-2.5127,-2.52,-2.5202,-2.5137,-2.5157,-2.5159,-2.518,-2.5188,-2.5186,-2.5164,-2.5158,-2.519,-2.5194,-2.5199,-2.5293,-2.5202,-2.5206,-2.5208,-2.5401,-2.5404,-2.5408,0,0,0,0,0,0,-2.5121,-2.513,-2.5199,-2.5163,-2.5171,-2.5162,-2.5185,-2.5182,-2.5194,-2.5189,-2.5187,-2.5178,-2.5188,-2.5194,-2.525,-2.5293,-2.5207,-2.5211,-2.5397,-2.5402,-2.5406,-2.548,0,0,0,0,0,0,-2.5118,-2.5129,-2.5159,-2.5164,-2.5173,-2.525,-2.5187,-2.5184,-2.52,-2.5194,-2.5202,-2.5201,-2.5186,-2.5245,-2.5253,-2.5296,-2.5214,-2.5393,-2.5399,-2.5405,-2.5474,-2.5487,-2.5498,0,0,0,0,0,-2.5115,-2.5179,-2.5161,-2.517,-2.5211,-2.5252,-2.5257,-2.5239,-2.5204,-2.5234,-2.5231,-2.5201,-2.5286,-2.5251,-2.526,-2.5305,-2.539,-2.5398,-2.5404,-2.5469,-2.5484,-2.5498,0,0,0,0,0,0,-2.518,-2.5179,-2.516,-2.5228,-2.524,-2.5242,-2.528,-2.5256,-2.5279,-2.5272,-2.5247,-2.525,-2.531,-2.5313,-2.5273,-2.5382,-2.5333,-2.5342,-2.5378,-2.5393,-2.5405,-2.5404,-2.5217,0,0,0,0,0,-2.5202,-2.5236,-2.5234,-2.5294,-2.5301,-2.529,-2.5307,-2.5292,-2.5304,-2.5309,-2.531,-2.5323,-2.5352,-2.5373,-2.54,-2.5473,-2.5475,-2.5509,-2.5521,-2.5531,-2.5539,-2.5579,-2.5594,-2.543,-2.543,-2.543,0,0,-2.5248,-2.5252,-2.5275,-2.5307,-2.5315,-2.5351,-2.5295,-2.5335,-2.5361,-2.5315,-2.5368,-2.5369,-2.5382,-2.5447,-2.5476,-2.5451,-2.5585,-2.5539,-2.5547,-2.5551,-2.5588,-2.5603,-2.5617,-2.5435,-2.5434,-2.5433,0,0,-2.5351,-2.5358,-2.5409,-2.5418,-2.5431,-2.5423,-2.5435,-2.544,-2.5439,-2.5492,-2.5458,-2.5489,-2.554,-2.5551,-2.5563,-2.567,-2.5643,-2.5679,-2.5742,-2.5781,-2.5794,-2.5806,-2.5845,-2.5859,-2.5688,-2.5688,-2.5688,0,-2.5408,-2.546,-2.5438,-2.5481,-2.5496,-2.5456,-2.5507,-2.5517,-2.5538,-2.555,-2.5521,-2.5585,-2.5591,-2.5659,-2.5685,-2.5696,-2.5709,-2.5679,-2.5794,-2.5805,-2.5816,-2.5853,-2.5867,-2.5692,-2.5692,-2.5691,-2.5691,0,-2.5529,-2.5566,-2.5606,-2.5628,-2.5647,-2.5694,-2.5679,-2.5701,-2.5684,-2.5678,-2.5733,-2.5738,-2.5765,-2.578,-2.5763,-2.5845,-2.583,-2.5798,-2.5748,-2.5836,-2.5871,-2.5884,-2.5699,-2.5697,-2.5696,-2.5695,0,0,-2.5676,-2.5684,-2.5699,-2.5709,-2.5719,-2.5748,-2.5792,-2.5819,-2.5839,-2.5855,-2.5892,-2.5937,-2.5907,-2.5921,-2.5905,-2.5939,-2.6024,-2.5904,-2.5903,-2.5927,-2.6116,-2.6141,-2.6158,-2.6006,-2.6009,-2.6011,-2.6115,0,-2.5779,-2.5857,-2.5838,-2.5915,-2.5949,-2.591,-2.595,-2.596,-2.5956,-2.5985,-2.598,-2.6012,-2.5971,-2.5979,-2.6011,-2.6007,-2.6062,-2.5999,-2.6041,-2.6043,-2.6041,-2.6175,-2.6202,-2.63,-2.6129,-2.6131,-2.6132,0,-2.591,-2.5931,-2.6011,-2.6017,-2.603,-2.6066,-2.6089,-2.6116,-2.6128,-2.6122,-2.6138,-2.6115,-2.6159,-2.6108,-2.6169,-2.6127,-2.6142,-2.6143,-2.6146,-2.6151,-2.6094,-2.6185,-2.6331,-2.6347,-2.6153,-2.6152,-2.615,0,-2.601,-2.6058,-2.6113,-2.6122,-2.6129,-2.6155,-2.6159,-2.6168,-2.6185,-2.6205,-2.6216,-2.6241,-2.6255,-2.6275,-2.6259,-2.6223,-2.6323,-2.627,-2.632,-2.6321,-2.6345,-2.6344,-2.6497,-2.6353,-2.6352,-2.6352,-2.6352,0,-2.6128,-2.6179,-2.6158,-2.6192,-2.6248,-2.6225,-2.6281,-2.6281,-2.6289,-2.6322,-2.6289,-2.6321,-2.6297,-2.6327,-2.6314,-2.6367,-2.6374,-2.6371,-2.6367,-2.6375,-2.6375,-2.6386,-2.6379,-2.6356,-2.6355,-2.6354,-2.6354,0,-2.625,-2.6238,-2.6295,-2.6297,-2.6299,-2.634,-2.6342,-2.6373,-2.6366,-2.6408,-2.6417,-2.6406,-2.6439,-2.6425,-2.646,-2.6451,-2.652,-2.6506,-2.6516,-2.6513,-2.6565,-2.6561,-2.6732,-2.6754,-2.6594,-2.6595,-2.6596,0,-2.6327,-2.6366,-2.6372,-2.6392,-2.6398,-2.6431,-2.6448,-2.6427,-2.6447,-2.6462,-2.6492,-2.6522,-2.6545,-2.66,-2.6595,-2.6621,-2.6609,-2.6667,-2.6613,-2.662,-2.6612,-2.661,-2.6614,-2.6679,-2.6681,-2.6682,-2.6683,0,-2.6466,-2.6458,-2.6484,-2.6509,-2.6531,-2.655,-2.6565,-2.6583,-2.6562,-2.6586,-2.6619,-2.6637,-2.6673,-2.6703,-2.6727,-2.673,-2.6704,-2.67,-2.6713,-2.6722,-2.6727,-2.6726,-2.6548,-2.6697,-2.6696,-2.6695,-2.6694,-2.6693,-2.6569,-2.6601,-2.6611,-2.6642,-2.6651,-2.6666,-2.6696,-2.6692,-2.672,-2.6748,-2.6733,-2.6772,-2.6782,-2.681,-2.6818,-2.6848,-2.6825,-2.6844,-2.6849,-2.6855,-2.6862,-2.6721,-2.6852,-2.6852,-2.6851,-2.6851,-2.6851,0,-2.6707,-2.6711,-2.6739,-2.6762,-2.6786,-2.6758,-2.6774,-2.6796,-2.6831,-2.6842,-2.6866,-2.6904,-2.6934,-2.6931,-2.6958,-2.6983,-2.6971,-2.6991,-2.699,-2.6991,-2.688,-2.6867,-2.7,-2.7,-2.7,-2.6999,-2.6999,-2.6999,-2.6781,-2.6835,-2.6828,-2.6886,-2.689,-2.6928,-2.694,-2.6953,-2.6962,-2.7007,-2.7031,-2.7029,-2.7035,-2.7062,-2.7087,-2.7086,-2.7098,-2.7122,-2.7116,-2.7013,-2.6999,-2.6985,-2.6972,-2.7125,-2.7125,-2.7224,-2.7225,-2.7226]},{"header":{"parameterUnit":"m.s-1","parameterCategory":1,"la1":30.2991,"la2":30.254,"lo1":-89.0895,"lo2":-89.0444,"dy":0.0017,"dx":0.0017,"nx":28,"ny":28,"refTime":"2023-11-11T03:00:00:Z","depth":0,"parameterNumber":3,"parameterNumberName":"V-component_of_WINDS"},"data":[0,0,0,0,0,0,0,0,0,0,0,0,0,0,0,0,0,0,0,0,0,0,0,0,0,0,0,0,0,0,0,0,0,0,0,0,0,0,0,0,0,0,0,0,0,0,0,0,0,0,0,0,0,0,0,0,0,0,-4.8494,-4.8494,0,-4.854,-4.854,-4.8541,-4.848,-4.8478,-4.8476,-4.8474,-4.8515,-4.8518,-4.8522,0,0,0,0,0,0,0,0,0,0,0,0,0,-4.8349,-4.8352,-4.8494,-4.8494,-4.8495,-4.8539,-4.854,-4.8541,-4.848,-4.8478,-4.8475,-4.8473,-4.8514,-4.8518,-4.8522,0,0,0,0,0,0,0,0,0,0,0,0,0,-4.8405,-4.8353,-4.8494,-4.847,-4.8469,-4.8539,-4.854,-4.8541,-4.8481,-4.8478,-4.8474,-4.8471,-4.8513,-4.8518,-4.8522,-4.8617,0,0,-4.8537,-4.8539,0,0,0,0,0,0,0,0,-4.8402,-4.841,-4.8473,-4.8472,-4.847,-4.8501,-4.8504,-4.8566,-4.8482,-4.8476,-4.8473,-4.847,-4.8513,-4.8517,-4.8533,-4.8618,-4.862,-4.8537,-4.854,-4.8542,-4.8543,0,0,0,0,0,0,0,-4.8398,-4.8408,-4.8512,-4.8474,-4.8473,-4.8456,-4.846,-4.8516,-4.8512,-4.8476,-4.8472,-4.8479,-4.8511,-4.8529,-4.8533,-4.8621,-4.8537,-4.8541,-4.8544,-4.8546,-4.8785,-4.8789,0,0,0,0,0,0,-4.8398,-4.8405,-4.851,-4.8513,-4.8428,-4.8461,-4.8466,-4.8494,-4.8511,-4.8511,-4.8481,-4.8476,-4.8522,-4.8528,-4.8535,-4.8646,-4.8542,-4.8546,-4.8549,-4.8782,-4.8786,-4.879,0,0,0,0,0,0,-4.8395,-4.8408,-4.8508,-4.8458,-4.847,-4.8467,-4.8499,-4.8497,-4.8514,-4.8515,-4.8514,-4.85,-4.852,-4.8528,-4.8597,-4.8647,-4.8549,-4.8553,-4.8778,-4.8783,-4.8788,-4.8869,0,0,0,0,0,0,-4.8391,-4.8407,-4.8444,-4.846,-4.8473,-4.8572,-4.8502,-4.85,-4.8523,-4.8516,-4.8532,-4.8532,-4.8518,-4.859,-4.8602,-4.8651,-4.8556,-4.8773,-4.878,-4.8786,-4.8862,-4.8877,-4.8889,0,0,0,0,0,-4.8386,-4.8464,-4.8446,-4.8459,-4.8519,-4.8575,-4.8582,-4.8566,-4.8527,-4.8563,-4.8564,-4.8531,-4.8639,-4.8598,-4.861,-4.8662,-4.877,-4.8778,-4.8786,-4.8856,-4.8874,-4.8889,0,0,0,0,0,0,-4.8453,-4.8466,-4.8446,-4.8532,-4.8553,-4.8564,-4.861,-4.8585,-4.8616,-4.8608,-4.8585,-4.859,-4.8663,-4.8669,-4.8623,-4.8754,-4.8698,-4.8709,-4.8747,-4.8764,-4.8777,-4.8774,-4.856,0,0,0,0,0,-4.8478,-4.8524,-4.8532,-4.8607,-4.8618,-4.8613,-4.8636,-4.8622,-4.8642,-4.865,-4.8656,-4.8675,-4.8713,-4.8739,-4.8774,-4.8863,-4.8865,-4.8904,-4.8918,-4.8929,-4.8939,-4.8985,-4.9003,-4.8816,-4.8816,-4.8816,0,0,-4.853,-4.8542,-4.8572,-4.862,-4.8635,-4.8681,-4.862,-4.8672,-4.8706,-4.8657,-4.8723,-4.8728,-4.8748,-4.8827,-4.8862,-4.8834,-4.8991,-4.8939,-4.8948,-4.8952,-4.8995,-4.9013,-4.9029,-4.8821,-4.882,-4.882,0,0,-4.8648,-4.8662,-4.8726,-4.8742,-4.8766,-4.8762,-4.8777,-4.8792,-4.8794,-4.886,-4.8825,-4.8864,-4.893,-4.8946,-4.8963,-4.9087,-4.9057,-4.9099,-4.9169,-4.9215,-4.923,-4.9243,-4.9287,-4.9303,-4.9108,-4.9108,-4.9108,0,-4.8708,-4.8779,-4.8762,-4.8816,-4.8838,-4.8798,-4.8862,-4.8878,-4.8911,-4.8926,-4.8895,-4.8978,-4.8988,-4.907,-4.9101,-4.9116,-4.9131,-4.9097,-4.923,-4.9242,-4.9254,-4.9296,-4.9312,-4.9113,-4.9113,-4.9112,-4.9112,0,-4.8852,-4.8901,-4.895,-4.8985,-4.9012,-4.9071,-4.9061,-4.909,-4.9074,-4.9072,-4.9139,-4.9151,-4.9188,-4.9206,-4.9189,-4.9286,-4.9268,-4.9234,-4.9177,-4.9277,-4.9316,-4.9332,-4.912,-4.9118,-4.9117,-4.9116,0,0,-4.9013,-4.9039,-4.9057,-4.9072,-4.9095,-4.9132,-4.9188,-4.9226,-4.9251,-4.9275,-4.9321,-4.9379,-4.9347,-4.9366,-4.9351,-4.9392,-4.9489,-4.9352,-4.9352,-4.9377,-4.9595,-4.9621,-4.964,-4.9469,-4.9472,-4.9475,-4.9593,0,-4.9131,-4.9231,-4.9218,-4.9313,-4.9358,-4.932,-4.9369,-4.9387,-4.9387,-4.9424,-4.9423,-4.9464,-4.9419,-4.9431,-4.9469,-4.9469,-4.9532,-4.946,-4.9511,-4.9513,-4.9507,-4.966,-4.9688,-4.9799,-4.9608,-4.9611,-4.9613,0,-4.9283,-4.9314,-4.9415,-4.9431,-4.9449,-4.9494,-4.9527,-4.9563,-4.9582,-4.9579,-4.9601,-4.9578,-4.9633,-4.9576,-4.965,-4.9602,-4.9621,-4.9625,-4.9628,-4.9633,-4.9569,-4.9668,-4.9834,-4.9851,-4.9636,-4.9634,-4.9633,0,-4.9391,-4.9458,-4.9527,-4.9541,-4.9561,-4.9593,-4.9603,-4.962,-4.9643,-4.9672,-4.9686,-4.972,-4.9739,-4.9765,-4.9751,-4.9711,-4.9828,-4.977,-4.9826,-4.9827,-4.9853,-4.9851,-5.0024,-4.9866,-4.9865,-4.9865,-4.9865,0,-4.9524,-4.9587,-4.9575,-4.9618,-4.9687,-4.9669,-4.9737,-4.9742,-4.9757,-4.9798,-4.9767,-4.9806,-4.9786,-4.9823,-4.9813,-4.9876,-4.9885,-4.9883,-4.9879,-4.9886,-4.9886,-4.9899,-4.989,-4.9869,-4.9869,-4.9868,-4.9867,0,-4.9656,-4.9651,-4.9724,-4.9738,-4.9743,-4.9793,-4.9804,-4.9842,-4.984,-4.9893,-4.9904,-4.9899,-4.9942,-4.9931,-4.9976,-4.9969,-5.0049,-5.0036,-5.0043,-5.004,-5.0097,-5.0092,-5.0284,-5.0308,-5.0134,-5.0136,-5.0137,0,-4.9742,-4.979,-4.9809,-4.9836,-4.9848,-4.9891,-4.9915,-4.9899,-4.9926,-4.9952,-4.9987,-5.0027,-5.0058,-5.0127,-5.0126,-5.0161,-5.0148,-5.0213,-5.0153,-5.0158,-5.0149,-5.0147,-5.0151,-5.0225,-5.0227,-5.0229,-5.023,0,-4.9894,-4.989,-4.9927,-4.9964,-4.9994,-5.0022,-5.0046,-5.0069,-5.0055,-5.0085,-5.0129,-5.0153,-5.02,-5.024,-5.0271,-5.0279,-5.0252,-5.0249,-5.0264,-5.0271,-5.0274,-5.0273,-5.0076,-5.0245,-5.0243,-5.0242,-5.0241,-5.0241,-5.0006,-5.0047,-5.0067,-5.011,-5.0127,-5.015,-5.0187,-5.019,-5.0227,-5.0265,-5.0253,-5.0303,-5.032,-5.036,-5.0372,-5.041,-5.0385,-5.0406,-5.0412,-5.0417,-5.0425,-5.0268,-5.0415,-5.0415,-5.0414,-5.0414,-5.0414,0,-5.0157,-5.0169,-5.0208,-5.0244,-5.0277,-5.025,-5.0275,-5.0304,-5.0349,-5.0369,-5.04,-5.045,-5.0488,-5.0491,-5.0527,-5.0556,-5.0545,-5.0566,-5.0564,-5.0566,-5.0445,-5.0429,-5.0575,-5.0575,-5.0575,-5.0575,-5.0575,-5.0575,-5.024,-5.0307,-5.0305,-5.038,-5.039,-5.044,-5.0457,-5.0478,-5.0494,-5.0551,-5.0584,-5.0586,-5.0598,-5.0634,-5.0668,-5.0667,-5.0682,-5.0708,-5.0703,-5.059,-5.0574,-5.0559,-5.0544,-5.0711,-5.0712,-5.0821,-5.0822,-5.0823]}]]